Location: ???? ???????
(44.8120°N, 135.0991°E)
Time: 04:18:22
(UTC+00:00)

Daily predictions for brighter satellites

Satellite Brightness Start Highest point End
(mag) Time Altitude Azimuth Time Altitude Azimuth Time Altitude Azimuth
DEBRIS 4.0 11:15:12 10° WNW 11:18:51 89° SSW 11:31:51 10° ESE
Cosmos 2227 4.3 11:14:36 10° SSW 11:20:20 86° ESE 11:26:08 10° NNE
Helios 1A Rocket 2.4 11:18:17 10° NNE 11:21:20 49° E 11:24:21 10° S
NOSS 2-3 (D) 4.4 11:19:45 10° SSE 11:22:41 21° ESE 11:25:33 10° ENE
Okean O Rocket 2.2 11:19:00 10° SE 11:23:06 43° ENE 11:27:15 10° N
Cosmos 1844 Rocket 2.8 11:22:42 10° SSW 11:28:16 83° WNW 11:33:52 10° NNE
NOSS 3-2 (C) 3.6 11:24:10 10° S 11:28:34 34° ESE 11:33:36 10° NE
Cosmos 1461 2.4 11:25:41 10° NNW 11:29:12 71° NE 11:32:35 10° SE
Meteor 2-20 Rocket 4.4 11:23:25 10° S 11:29:13 80° E 11:35:18 10° N
CZ-4B R/B 3.3 11:23:57 10° SSE 11:29:23 85° WSW 11:34:46 10° NNW
Terra 2.2 11:27:19 10° S 11:31:59 65° W 11:36:41 10° NNW
Cosmos 1655 Rocket 4.2 11:25:45 10° N 11:32:04 63° E 11:38:22 10° SSE
Ariane Rocket 4.3 11:28:20 10° ESE 11:32:25 25° ENE 11:36:32 10° N
Cosmos 1603 3.8 11:27:08 10° NNW 11:32:54 77° ENE 11:38:34 10° SSE
Cosmos 44 Rocket 4.5 11:28:21 10° NW 11:33:09 40° WSW 11:37:47 10° S
Spot 2 Rocket 3.6 11:29:44 10° SSE 11:34:46 69° ENE 11:39:50 10° N
Cosmos 2208 Rocket 4.3 11:30:07 10° SSW 11:35:18 73° WNW 11:40:29 10° NNE
MOS 1-B 4.5 11:35:39 10° SSE 11:41:24 68° ENE 11:47:11 10° N
Cosmos 1340 Rocket 3.0 11:38:09 10° N 11:41:49 49° ENE 11:45:16 11° SSE
Cosmos 1833 Rocket 4.1 11:37:38 10° N 11:42:22 27° NE 11:47:06 10° ESE
ATLAS 2AS CENTAUR R/B 4.3 11:38:13 10° NW 11:43:48 28° WSW 11:49:25 10° SSW
Cosmos 2285 Rocket 4.4 11:38:05 10° NNW 11:44:19 53° ENE 11:50:14 11° SE
USA 245 4.1 11:42:09 11° SE 11:44:48 25° ENE 11:47:16 10° NNE
SPOT 3 Rocket 4.1 11:42:38 10° SE 11:47:23 43° ENE 11:52:15 10° N
ERS-1 Rocket 4.1 11:43:29 10° S 11:48:12 42° W 11:52:57 10° NNW
Cosmos 1953 4.3 11:46:48 10° NE 11:48:16 12° ENE 11:49:44 10° E
CZ-4 R/B 3.4 11:45:17 10° SSW 11:48:20 23° W 11:51:26 10° NW
Lacrosse 5 rocket 1.9 11:45:49 10° S 11:48:52 26° SE 11:51:54 10° ENE
BREEZE-M R/B 4.3 11:48:33 10° S 11:51:43 25° SE 11:56:48 10° ENE
In-Cosmos 22 4.3 11:46:51 10° S 11:52:35 76° E 11:58:20 10° NNE
NOSS 2-3 (E) 3.4 11:49:37 10° SSW 11:53:12 45° ESE 11:56:45 10° NE
BREEZE-M DEB (TANK) 3.4 11:53:41 10° WNW 11:55:58 30° N 11:57:50 10° ENE
